Theta_e
304 295 292 291 295 298 299 299 299 299 299 297 298 296 294 293 294 297 296 298 297 295 293 294 294 295 296 296 296 297 297 296 296 296 296 295 295 295 295 296 296 296 295 297 299 299 299 299 300 300 301 301 301 302 304 304 304 304 303 303 302 303 303 302 302 301 300 298 297 297 296 295 295 295 295 295 295 295 295 295 295 295 296 296 297 297
303 294 294 298 299 300 300 301 300 299 298 296 296 294 292 295 292 297 296 296 297 295 292 294 294 295 296 298 297 297 295 295 296 296 295 295 295 295 295 295 295 295 296 297 297 298 298 298 300 299 299 300 299 300 303 303 302 301 302 301 301 301 300 299 299 298 297 297 296 295 294 294 294 294 293 292 292 292 293 293 293 293 293 293 293 294
294 292 297 300 302 302 301 300 299 298 297 297 293 292 291 292 296 298 295 296 296 295 290 294 293 294 296 297 297 296 296 296 297 297 296 296 295 295 295 295 295 295 295 295 296 298 297 298 299 298 298 299 299 299 301 302 303 302 300 299 299 298 297 297 298 297 296 297 297 295 294 293 292 293 292 292 292 292 291 291 292 292 292 292 292 292
291 295 299 302 301 300 298 298 298 298 298 294 292 290 289 295 292 290 293 295 294 293 292 293 292 294 297 299 299 297 297 296 297 298 298 297 295 295 295 295 295 295 294 294 294 295 296 297 297 297 298 298 299 299 299 299 300 300 300 298 297 296 296 296 296 296 296 296 295 295 294 293 292 290 291 290 290 290 290 290 290 291 291 291 291 291
294 299 303 302 300 299 297 297 295 293 292 294 294 292 292 294 294 293 292 293 295 294 295 292 291 292 294 295 296 293 294 294 295 295 294 294 296 296 296 296 296 295 294 294 294 295 295 296 296 296 297 297 297 297 298 299 299 299 298 297 297 296 296 296 296 295 295 294 294 293 293 292 291 290 289 288 287 288 288 289 289 289 290 290 290 290
297 301 303 300 299 298 297 295 295 295 290 292 295 295 295 295 294 294 297 294 291 289 293 292 283 284 294 295 296 291 291 291 292 292 292 293 292 292 292 293 294 296 295 294 294 294 295 295 295 295 296 296 296 296 297 298 298 297 297 297 297 297 296 296 297 296 295 294 293 291 290 288 287 286 286 285 285 286 287 287 288 289 290 290 290 290
297 301 300 299 298 297 297 295 297 296 291 290 292 298 297 296 295 295 294 292 284 282 291 294 285 283 291 293 293 291 291 291 291 291 292 292 292 292 292 293 292 293 294 294 294 294 294 294 294 295 295 295 294 295 298 297 296 296 296 296 295 295 295 297 296 295 294 292 292 291 289 288 286 286 286 286 286 287 287 288 288 288 289 289 289 289
298 296 297 299 298 296 294 292 297 296 292 289 296 299 298 297 295 294 295 292 289 294 295 292 291 284 285 291 295 292 291 291 289 290 291 292 292 291 292 293 292 292 292 292 292 293 294 294 294 294 295 295 294 295 295 295 295 294 294 293 293 293 294 294 294 293 293 291 290 289 289 288 287 286 286 286 286 287 287 287 287 287 288 288 288 288
297 294 296 296 295 293 293 297 299 298 294 293 296 299 296 297 296 295 293 289 289 287 283 287 292 284 283 290 296 293 290 290 289 289 290 291 291 291 292 292 292 293 292 292 292 293 293 293 293 293 293 294 294 294 293 293 292 293 293 292 292 292 292 292 292 292 291 291 290 289 288 287 287 287 287 287 288 287 287 286 286 286 287 287 288 288
298 297 298 299 295 293 296 294 298 299 294 296 298 297 296 297 295 296 290 288 287 286 283 286 290 283 285 291 290 291 291 291 292 291 291 292 291 291 291 292 292 292 292 293 292 292 291 291 292 292 292 292 292 293 293 292 292 292 292 292 291 291 291 292 291 291 290 290 290 288 287 287 287 287 287 287 286 286 286 286 285 285 286 286 286 287
297 296 297 298 296 299 293 293 294 297 297 298 297 295 293 292 290 289 289 287 285 282 284 290 291 288 282 289 290 289 291 293 293 291 292 292 291 291 291 291 291 292 292 292 291 291 290 290 290 291 291 291 291 291 292 292 292 291 291 290 290 290 291 291 291 290 290 289 289 288 288 287 287 287 286 286 286 286 285 285 285 285 285 285 285 285
296 297 297 297 298 297 297 293 295 296 297 297 293 289 290 287 287 285 285 286 280 281 284 290 291 291 281 282 292 292 293 294 294 291 291 291 290 291 291 291 291 291 291 291 290 289 289 289 289 290 289 290 290 290 291 291 291 291 291 290 290 290 290 291 291 291 291 290 289 289 288 288 287 287 287 286 285 285 285 285 285 284 285 285 285 284
291 292 296 296 298 297 295 292 291 294 294 294 291 289 284 282 282 278 282 278 280 280 282 284 288 286 287 291 292 292 293 293 294 295 293 291 291 290 290 291 291 291 290 290 289 288 288 288 288 288 289 289 289 290 290 290 290 290 290 289 289 289 289 290 290 290 290 289 289 289 288 288 288 288 287 286 286 285 285 285 284 284 283 283 283 283
289 295 296 295 296 297 298 290 285 285 288 291 289 286 283 281 280 279 280 281 281 283 282 284 287 282 286 290 297 297 292 293 293 294 295 293 291 290 290 290 291 290 290 289 289 288 288 288 288 288 288 289 289 289 290 290 289 290 290 289 289 288 289 289 289 289 289 288 288 288 288 288 288 287 287 286 286 286 285 285 284 284 283 283 282 283
283 284 291 292 288 297 297 296 294 291 289 291 293 291 287 285 281 279 281 279 281 280 281 284 282 280 282 286 288 289 289 290 291 293 294 293 292 291 291 290 290 290 289 289 288 288 288 288 288 288 289 289 289 289 289 289 289 289 289 288 288 288 288 288 288 288 288 288 288 288 288 287 287 286 286 286 286 286 285 285 284 284 283 282 282 282
289 289 295 298 296 297 295 298 299 294 289 290 293 294 288 286 288 284 282 281 279 279 277 279 281 283 287 289 289 289 289 290 291 292 292 291 291 291 290 290 290 290 290 289 289 289 288 289 288 288 289 289 289 289 289 289 289 289 288 288 288 288 288 288 288 288 287 287 287 286 286 286 287 286 286 286 286 285 285 284 284 283 283 283 282 283
288 287 292 295 296 295 295 298 298 298 284 288 291 287 289 293 292 284 280 281 280 279 278 282 282 285 290 288 288 288 288 288 289 291 290 290 290 290 289 289 289 290 290 289 289 288 288 288 288 288 288 288 288 288 289 289 289 289 288 288 288 288 288 288 287 287 287 286 286 286 286 286 286 286 285 285 284 284 284 283 283 283 283 283 283 283
288 289 290 292 290 293 292 293 297 295 296 291 284 289 293 295 293 286 281 281 279 279 280 282 281 281 283 283 287 286 286 286 288 288 290 290 290 289 289 290 290 290 290 290 289 289 288 288 288 288 288 288 288 288 288 289 289 289 289 288 287 287 287 287 287 286 286 286 286 286 286 286 286 285 285 285 284 284 283 283 282 282 281 281 282 282
297 287 288 292 292 292 293 295 294 296 294 291 288 295 290 282 282 285 283 279 278 278 278 280 282 283 285 287 284 286 286 286 287 288 289 289 289 289 289 290 290 290 289 289 289 289 288 288 288 288 288 288 288 288 288 289 289 288 288 288 287 287 287 287 287 286 287 287 287 286 285 285 285 285 285 284 284 283 282 282 281 281 281 281 281 281
297 288 286 289 291 291 291 291 285 287 293 294 293 289 294 286 284 283 285 282 283 279 276 277 281 280 288 290 288 289 289 289 288 288 289 289 289 290 290 290 290 289 289 289 289 289 288 288 288 287 287 287 287 288 288 288 288 288 288 287 287 287 286 286 286 286 285 285 285 285 284 284 284 284 284 283 283 282 281 281 281 280 279 280 280 278
291 293 285 284 291 291 283 287 287 289 286 284 285 284 287 285 287 286 286 284 281 278 278 278 277 281 288 292 292 292 292 291 290 289 289 290 290 290 290 290 290 290 290 290 289 289 288 287 287 287 287 287 287 288 288 288 287 287 287 286 286 286 285 285 285 285 285 285 284 283 283 283 283 282 283 282 282 281 280 280 280 279 279 278 278 278
288 287 287 284 283 283 287 293 293 293 293 290 289 287 290 287 284 281 280 287 284 281 279 279 280 282 290 291 291 290 294 293 292 290 290 290 290 291 291 291 291 291 291 290 290 289 288 287 287 287 287 286 286 286 287 287 287 286 286 286 286 285 285 284 284 284 284 284 283 282 282 281 281 281 281 280 279 279 279 278 278 278 277 277 277 277
296 290 289 283 284 286 291 292 293 292 292 292 291 289 292 290 286 283 279 281 282 284 283 280 277 281 287 288 288 289 290 292 292 291 291 291 291 291 292 292 292 292 291 291 290 289 288 287 287 286 286 286 285 286 286 286 286 286 286 285 285 284 284 284 284 284 283 282 281 281 280 280 280 280 280 279 279 278 278 277 277 277 277 276 276 276
294 288 287 287 290 290 291 293 293 292 293 289 289 289 289 288 289 288 285 284 283 281 281 279 278 282 287 286 287 288 288 289 292 293 292 291 291 291 292 292 292 291 291 290 290 289 288 287 286 285 285 285 285 285 285 286 286 286 285 285 285 284 283 283 283 282 282 281 280 280 280 280 280 280 280 279 278 278 277 276 276 277 276 276 276 275
290 287 288 284 283 284 286 288 288 290 289 285 285 290 291 292 290 285 284 285 282 283 283 281 278 282 286 284 288 288 288 288 291 292 293 292 291 292 292 292 292 291 291 290 289 288 287 285 285 285 285 285 285 284 284 285 285 285 285 284 284 283 283 283 282 282 281 280 280 279 279 279 279 279 278 278 278 277 277 276 275 275 275 275 275 274
292 288 288 284 281 279 278 279 281 283 285 287 286 288 290 290 288 286 284 284 281 284 285 283 282 285 286 285 287 287 288 288 288 289 291 292 292 292 291 292 291 291 291 290 288 286 285 285 285 284 284 284 284 284 284 284 284 284 284 284 284 284 282 282 282 281 280 280 279 279 278 278 277 277 277 277 277 276 276 275 275 274 274 274 274 273
288 290 291 290 287 285 287 284 288 289 285 284 286 287 288 290 290 288 287 284 283 283 283 287 285 282 284 285 285 283 285 287 287 288 289 291 291 291 291 291 290 290 290 289 288 286 284 284 284 284 284 284 283 284 284 284 284 284 284 284 284 283 282 282 282 281 280 279 278 278 277 277 277 277 277 277 276 276 275 274 274 274 274 274 273 273
287 287 289 290 289 290 285 284 290 290 286 287 286 286 288 288 289 288 286 285 287 284 282 288 287 284 285 286 287 287 288 288 289 289 289 289 290 291 290 289 290 288 287 287 286 285 285 285 284 283 283 283 283 283 284 284 284 285 285 285 285 284 283 283 282 281 279 278 277 277 277 277 277 277 277 277 276 276 276 275 274 273 273 273 272 272
287 286 290 289 289 291 288 290 289 289 289 288 288 287 286 288 288 287 287 289 288 286 284 286 288 287 287 288 289 290 290 290 291 289 290 291 290 289 288 288 288 287 287 286 286 286 285 285 284 284 283 284 283 283 283 284 284 284 285 286 286 285 284 283 281 279 278 278 277 277 277 277 277 277 277 276 276 276 275 275 273 272 272 272 272 273
289 287 288 289 288 289 288 287 288 286 285 285 287 288 289 288 288 288 289 290 289 287 288 287 287 288 290 290 290 291 292 292 291 291 290 289 289 289 289 288 287 287 287 287 287 287 286 285 285 284 284 283 283 283 283 284 284 285 285 285 285 284 283 282 281 279 278 278 278 278 278 278 278 277 277 276 276 275 275 274 273 272 272 272 272 272
291 287 290 287 287 287 287 286 287 287 286 284 286 287 289 289 289 289 289 289 289 288 288 287 286 286 291 293 292 289 289 291 290 289 289 289 288 288 288 288 287 287 287 287 286 286 286 285 284 284 283 283 283 283 284 284 285 285 285 285 285 284 283 281 280 280 279 279 279 279 278 278 277 277 276 276 276 275 274 274 274 274 273 272 271 269
290 285 286 287 284 285 286 286 284 285 285 285 285 286 286 287 286 288 287 289 287 287 287 286 285 287 290 293 289 289 290 291 290 289 288 288 288 287 287 287 287 286 286 287 286 286 286 285 285 284 284 284 284 284 284 284 285 285 285 285 284 284 283 282 281 281 280 279 279 278 277 277 277 276 276 276 276 275 274 274 273 273 272 272 271 270
288 286 284 285 283 284 283 285 284 284 285 283 285 287 287 288 290 290 290 289 290 290 286 285 286 289 291 291 290 289 290 290 290 289 287 287 287 287 287 287 287 286 287 287 286 286 286 286 286 286 285 284 284 284 284 285 284 284 284 284 284 283 282 282 281 281 280 279 278 278 277 277 276 276 276 275 275 275 274 273 273 272 272 271 271 270
288 287 286 287 282 281 279 284 285 283 277 281 287 290 291 288 289 287 288 289 290 291 289 291 290 289 290 289 290 289 288 288 290 291 292 291 288 286 285 286 286 287 286 285 285 285 285 285 285 285 285 285 285 285 285 285 284 284 284 283 283 283 282 281 281 280 279 278 278 278 277 277 276 276 275 275 274 274 273 272 272 272 272 271 271 270
286 286 286 286 283 278 281 283 281 275 279 284 283 286 291 292 292 290 290 290 290 291 291 290 288 288 291 292 292 291 290 291 290 290 288 289 289 289 288 287 287 287 286 286 285 285 285 285 285 285 284 284 284 284 284 283 284 283 283 283 282 282 281 281 280 279 279 278 278 277 277 276 276 275 275 274 273 273 272 272 271 272 271 270 270 269
285 286 286 284 283 281 278 281 274 277 282 282 282 281 285 290 290 289 288 290 291 291 291 290 291 291 291 291 289 287 287 285 285 285 286 288 291 290 288 288 288 287 287 287 286 286 286 286 286 286 285 285 284 284 284 284 283 283 283 283 282 282 281 280 279 279 278 277 277 276 276 276 275 275 274 273 273 272 272 271 271 271 270 269 267 266
288 286 286 282 284 275 279 279 280 284 283 281 279 282 285 285 286 287 284 287 291 291 290 290 291 292 291 290 285 284 285 286 287 286 285 286 288 288 289 288 288 287 287 286 287 287 287 287 286 285 285 284 284 284 284 284 283 283 282 281 281 281 280 279 278 278 278 277 276 276 276 276 276 275 274 273 272 271 271 271 270 270 269 267 268 268
288 286 286 283 282 282 278 276 277 277 275 279 280 283 287 287 289 290 287 285 288 289 291 291 291 291 289 285 284 284 285 286 285 285 285 285 286 286 285 286 286 286 286 285 284 284 284 284 284 284 285 283 283 284 283 283 283 282 281 281 280 279 279 279 279 279 278 277 276 276 276 276 276 275 274 273 272 272 272 271 271 269 268 267 267 267
285 287 286 285 282 281 280 277 277 275 278 282 281 283 285 286 288 286 283 279 285 287 290 291 291 290 289 284 283 285 285 283 284 286 286 284 285 285 285 283 284 284 284 284 284 284 283 283 283 283 282 282 283 282 282 282 282 281 280 280 279 279 279 279 279 279 278 278 277 277 276 276 276 275 274 273 272 272 271 271 270 269 268 266 266 265
284 284 285 282 282 282 280 278 276 279 277 279 279 281 283 286 288 285 274 275 285 285 287 288 289 287 285 284 284 285 285 282 285 286 284 285 285 285 284 283 282 282 281 281 281 282 282 282 283 282 282 282 282 280 281 281 281 281 280 279 279 278 279 279 279 280 280 279 278 276 275 275 274 274 273 272 271 271 271 270 269 267 266 265 265 264
281 281 284 280 282 282 282 279 281 280 283 280 280 280 282 286 286 276 273 281 283 283 283 287 286 286 285 284 285 284 286 286 284 282 280 282 282 281 281 281 281 281 281 281 281 283 281 281 281 282 281 281 281 279 279 280 280 280 280 279 278 278 279 280 280 279 279 278 276 275 275 274 273 273 272 271 271 270 270 269 268 266 265 264 264 263
280 281 281 284 281 280 281 278 279 282 285 281 280 282 283 285 276 276 283 281 283 283 282 284 286 285 286 285 286 285 282 280 280 280 280 280 281 279 279 279 279 279 279 280 281 280 280 279 279 279 279 280 279 278 278 279 280 279 278 277 278 279 280 279 278 278 277 277 276 275 274 273 272 272 271 269 268 268 268 266 265 265 264 263 263 263
281 279 277 280 282 281 281 278 277 274 282 281 283 282 283 280 281 283 281 281 282 282 282 284 285 284 286 284 284 281 280 279 280 280 280 280 280 279 279 279 279 279 279 280 279 279 280 279 279 278 278 277 276 276 277 277 278 277 277 277 279 280 277 276 276 276 276 276 275 274 273 272 271 270 269 268 267 267 266 264 264 263 263 263 262 262
285 279 279 280 284 277 279 276 277 283 281 284 285 282 282 284 283 282 283 280 282 281 281 282 283 283 284 285 283 279 279 279 279 279 279 279 279 279 278 278 278 278 278 278 279 280 278 278 277 277 276 275 275 275 277 278 278 276 276 278 280 276 274 275 275 275 275 275 274 273 272 270 269 268 268 267 266 266 264 263 262 262 262 262 261 261
285 282 283 279 285 282 280 283 281 281 284 283 283 284 285 285 283 283 283 282 280 280 281 281 282 282 282 282 282 280 279 279 279 279 279 279 279 279 279 279 279 279 279 279 279 279 278 278 277 276 274 274 273 273 275 275 277 276 276 279 276 276 275 274 274 274 274 274 273 272 270 268 268 267 266 266 266 265 264 262 261 261 260 260 261 261
280 282 281 281 280 286 283 282 282 281 283 282 281 282 284 282 282 281 283 281 281 281 282 282 281 281 281 280 281 279 279 278 279 278 278 278 278 278 278 278 278 278 278 278 277 278 277 275 274 274 274 272 272 273 273 274 276 276 278 275 275 273 274 273 273 273 274 273 272 270 268 267 265 264 264 264 264 265 264 263 262 262 261 260 261 261
280 280 281 279 281 283 279 280 280 281 282 282 282 282 281 281 282 281 281 282 282 281 281 282 281 281 281 280 281 280 279 278 278 278 278 278 278 278 278 279 278 279 279 278 278 278 276 275 275 275 274 274 271 272 272 273 275 277 275 274 274 273 273 273 273 272 271 271 270 268 267 267 265 263 262 262 262 262 263 262 262 262 262 261 261 261
277 281 279 280 280 279 278 278 278 279 280 281 282 281 281 281 280 280 280 279 279 279 280 280 280 280 280 280 279 279 279 279 279 278 279 278 278 278 278 278 278 277 278 278 277 277 275 276 276 276 274 276 275 273 273 273 274 275 273 270 273 271 271 272 272 272 271 270 269 267 266 266 265 264 262 262 262 262 262 262 262 263 263 262 262 262
280 282 274 280 279 278 277 278 278 279 281 282 281 281 282 282 281 279 279 279 278 279 278 278 278 279 279 279 279 279 279 279 279 279 279 278 278 278 279 279 278 279 279 278 276 276 277 276 276 276 275 276 275 274 272 272 273 272 273 272 269 270 271 271 269 269 266 267 267 266 265 265 264 264 263 262 261 262 263 263 263 263 262 261 263 264
279 275 278 278 274 277 278 278 279 277 276 279 280 282 282 281 281 279 279 279 278 278 278 278 278 278 278 278 279 279 279 278 278 278 278 279 279 278 277 278 278 277 277 277 276 276 276 275 276 276 275 276 274 273 273 272 272 270 271 270 268 269 271 270 269 267 267 267 267 266 264 264 264 263 263 262 261 261 261 265 267 265 263 262 268 271
279 279 279 277 277 276 280 280 281 281 280 281 282 282 281 281 280 279 279 279 278 277 277 277 277 277 277 278 278 279 278 279 278 278 277 277 278 279 279 278 277 276 277 275 275 273 274 274 273 272 272 274 272 274 274 273 270 269 269 270 269 269 269 268 269 268 268 266 267 266 265 264 264 263 263 262 261 261 261 259 265 270 271 269 269 271
Wind_Speed
5 4 5 6 8 8 7 8 9 8 6 6 1 2 5 5 4 5 3 0 1 1 6 6 5 6 8 5 11 9 6 5 5 6 6 6 6 6 5 5 5 5 5 4 4 4 4 5 4 4 3 5 4 6 6 5 5 5 6 5 7 6 5 5 6 5 6 8 8 8 9 10 8 8 9 10 9 9 9 9 9 9 9 9 10 9
1 5 8 9 9 7 7 7 9 9 7 4 3 4 5 2 7 4 2 3 1 0 2 3 5 7 6 6 6 6 7 9 9 8 8 7 6 6 6 6 5 6 5 5 4 4 5 4 4 3 4 4 5 5 5 5 5 4 5 6 6 6 7 7 6 6 7 7 6 8 8 8 8 8 8 9 8 8 8 10 10 9 9 10 10 10
4 10 8 10 8 6 7 1 3 3 4 4 4 3 4 5 4 7 4 2 1 1 5 7 9 8 8 6 3 13 12 10 11 9 8 8 7 6 5 6 6 7 6 5 5 4 5 5 4 3 5 5 5 4 3 3 4 6 6 7 7 7 7 7 7 7 8 7 8 9 8 9 10 8 8 8 8 8 10 10 9 9 10 10 10 10
6 7 11 9 7 8 5 2 1 1 1 2 2 3 6 3 3 3 3 1 3 2 2 3 8 8 7 9 11 10 9 2 3 3 3 5 8 6 7 7 8 7 8 7 6 6 5 5 4 4 5 4 3 3 3 3 5 6 5 6 7 7 7 8 7 8 9 10 11 11 10 10 10 9 8 10 9 9 10 11 9 9 9 9 9 9
11 3 3 11 9 7 6 4 3 3 5 4 6 5 4 4 6 7 3 4 4 4 3 4 7 9 8 12 10 3 5 5 2 4 3 4 3 4 5 6 7 8 8 8 7 6 6 6 5 5 5 4 4 3 3 3 4 5 6 7 8 7 7 8 9 10 10 12 11 11 10 8 10 8 7 8 9 8 8 9 10 9 8 9 9 9
13 8 1 5 8 6 5 5 6 4 5 5 6 9 7 6 6 5 2 4 2 3 4 4 4 3 7 14 12 5 3 3 4 4 5 4 3 4 5 5 4 6 6 8 8 8 7 7 7 5 5 4 5 3 2 3 4 5 5 6 6 6 7 7 7 8 7 8 9 6 8 8 8 9 7 8 8 7 9 8 5 9 9 9 10 9
5 2 7 6 5 5 5 5 4 8 6 4 3 5 11 7 5 2 4 2 3 2 1 1 4 7 3 5 1 5 7 6 4 7 6 7 6 5 5 6 4 5 7 6 6 6 8 7 7 6 5 4 5 4 2 3 4 5 5 5 5 5 4 4 5 4 4 5 7 8 8 8 8 10 7 5 6 7 6 7 9 8 8 9 10 9
4 3 2 4 5 5 5 6 4 9 4 4 1 3 2 1 1 1 1 3 4 2 2 3 3 7 11 7 5 7 7 7 6 7 7 8 8 8 6 7 7 6 4 6 7 6 6 7 7 7 8 5 5 4 3 4 4 5 5 5 5 4 5 5 6 8 7 8 9 10 9 8 9 9 9 7 6 6 6 8 8 7 8 8 8 9
5 6 6 5 5 5 8 6 4 8 5 2 1 3 2 2 0 0 1 3 3 3 5 4 2 3 6 3 10 10 5 7 11 10 10 9 8 8 7 8 8 8 6 6 7 7 7 7 7 7 7 6 5 3 4 4 4 5 5 6 6 6 6 6 7 8 8 8 9 8 9 10 7 9 7 6 6 6 6 8 6 7 7 8 8 8
2 1 5 9 7 8 3 2 2 7 7 0 2 5 4 3 1 1 1 1 2 2 9 5 5 5 14 4 3 5 5 10 9 11 11 11 10 9 8 7 7 7 6 6 6 6 6 6 7 7 7 6 5 4 4 4 5 5 5 7 7 6 6 6 7 8 8 8 8 9 8 11 9 7 7 6 7 6 5 8 6 6 7 6 7 7
2 3 2 0 4 2 5 2 4 3 4 5 4 4 2 2 1 1 1 0 2 8 9 6 8 6 9 2 9 8 7 8 3 4 5 8 8 8 7 8 8 7 7 7 7 6 6 5 7 7 7 6 5 4 5 5 5 5 6 7 8 6 7 6 7 8 9 8 7 8 8 8 10 8 8 8 7 6 6 7 7 6 6 6 6 6
2 2 0 0 3 4 4 3 5 2 3 6 2 3 2 0 3 0 1 2 2 11 4 12 10 11 10 3 1 1 3 2 9 10 12 11 12 11 9 9 8 8 7 8 8 8 8 7 6 6 7 6 5 5 5 5 5 6 6 7 9 7 7 7 7 8 8 7 7 7 7 9 8 8 7 8 8 6 7 6 7 6 6 6 6 6
6 5 2 3 6 5 3 6 2 2 1 2 4 4 7 2 2 2 3 4 8 10 1 1 4 6 16 9 2 4 3 1 2 8 13 13 12 11 9 10 8 8 7 9 8 8 8 8 8 8 7 7 6 6 6 6 6 6 7 7 10 7 6 7 7 8 8 7 7 7 7 6 7 7 7 7 7 5 6 7 7 6 7 6 6 6
5 5 8 4 2 5 7 9 3 0 6 6 7 8 6 3 4 7 4 3 4 2 2 1 1 4 2 5 15 12 3 2 1 1 11 14 14 12 11 10 9 9 9 8 8 8 7 8 7 7 7 7 6 6 6 6 6 6 7 7 9 8 7 7 7 7 8 7 6 6 6 7 7 7 7 6 7 6 6 6 7 6 6 6 6 5
3 2 8 9 6 8 11 13 13 6 9 11 5 10 9 8 3 4 5 8 5 2 0 3 3 6 5 7 5 5 4 3 3 3 8 9 10 10 9 9 9 9 8 8 8 9 9 9 8 8 7 7 7 7 7 6 6 6 7 8 9 9 7 8 7 7 8 7 7 6 6 7 6 7 7 7 6 7 7 6 7 6 6 6 5 6
13 8 2 16 0 13 14 8 5 6 4 5 6 3 6 10 1 6 0 0 1 1 1 2 5 2 5 1 3 3 4 3 2 5 9 9 9 10 10 10 10 9 9 8 9 9 8 9 8 8 7 7 7 7 6 6 6 7 7 8 8 9 9 8 9 7 7 7 7 6 7 7 7 7 7 7 6 7 6 6 7 7 6 6 6 5
2 7 2 3 2 12 10 5 6 9 6 5 6 10 6 1 5 1 1 1 1 2 8 4 5 6 1 0 3 4 4 3 0 4 8 8 9 10 9 9 9 9 9 9 9 8 9 8 7 8 7 7 7 7 7 6 6 8 9 10 10 9 8 9 8 8 7 8 8 8 7 7 7 7 7 7 7 7 7 7 6 6 6 5 5 5
7 2 2 3 4 1 1 3 1 3 0 7 5 6 3 4 3 2 5 0 3 7 6 8 9 4 3 8 4 4 4 4 5 4 7 8 10 11 10 10 11 10 9 8 8 7 8 8 8 7 6 6 7 7 7 7 6 8 8 10 11 10 11 8 9 8 8 8 8 8 8 8 8 8 8 7 8 7 7 6 6 5 6 5 4 4
4 5 3 2 3 2 3 1 1 2 4 2 4 2 9 3 3 4 2 7 4 7 4 4 8 7 12 9 3 6 9 9 10 7 8 11 11 11 9 9 9 8 9 9 10 10 9 9 8 8 8 7 6 6 6 7 7 7 6 7 9 10 9 9 8 7 7 7 7 7 8 8 8 7 7 6 6 6 7 7 6 6 5 5 4 5
2 7 1 3 1 1 1 3 9 5 1 1 0 2 2 2 3 7 9 0 3 6 1 5 6 8 8 6 13 13 15 14 12 11 12 13 12 11 10 11 12 12 11 10 10 9 9 9 8 8 8 9 9 8 7 7 6 7 7 8 8 7 8 8 8 8 9 7 8 8 8 7 7 7 6 6 6 7 6 6 5 5 5 5 5 4
4 3 7 1 3 5 2 5 9 13 12 3 1 4 1 2 1 2 1 5 4 2 5 5 6 4 2 1 11 13 14 14 17 17 13 12 12 11 11 12 12 12 12 11 11 10 10 10 9 8 7 7 7 6 6 7 8 8 7 8 8 10 9 8 7 8 7 8 8 9 8 8 7 7 7 7 6 6 6 5 5 5 5 5 4 4
2 4 10 4 1 7 4 6 12 12 15 15 15 15 15 11 6 5 8 3 3 2 6 3 13 1 1 2 1 4 8 14 15 15 14 11 12 12 11 11 12 12 12 12 10 10 10 10 10 8 7 6 7 7 8 8 7 8 8 8 9 8 8 9 8 8 8 7 8 8 8 7 6 6 7 7 6 6 6 5 5 5 5 5 4 5
6 2 3 5 7 7 5 1 1 2 2 4 7 7 8 6 5 5 6 6 2 7 2 1 3 7 2 2 3 3 4 6 9 9 10 10 12 11 11 11 10 10 12 12 12 11 10 10 10 10 9 9 9 8 8 8 8 9 8 9 8 9 8 7 8 7 8 8 8 8 7 8 7 7 7 8 6 7 6 4 4 4 6 6 5 4
9 3 5 1 3 2 1 1 1 0 0 3 5 3 5 12 12 11 4 2 7 3 3 2 5 4 1 2 2 3 3 4 7 10 11 9 9 10 10 10 11 10 8 8 9 8 9 9 9 9 10 10 10 9 9 8 7 8 8 9 9 9 9 8 8 8 8 8 8 8 8 8 7 8 8 8 7 7 5 4 4 4 6 5 5 5
5 4 5 2 1 0 1 0 2 1 1 3 3 8 10 7 7 2 3 1 1 10 8 8 16 1 1 0 1 0 1 4 6 6 10 11 8 9 9 8 8 9 10 11 11 11 10 10 12 12 11 11 9 8 8 8 8 8 8 8 9 8 8 8 8 9 8 9 10 8 9 8 8 8 8 8 7 8 6 5 5 4 5 5 5 4
5 5 10 10 13 11 9 10 12 11 14 5 5 6 9 12 11 7 9 6 8 5 12 9 9 1 1 1 2 1 3 3 1 3 5 6 9 10 9 10 11 11 11 12 11 11 14 13 10 9 10 10 9 10 9 8 8 8 8 9 8 10 9 8 8 8 9 9 10 9 9 9 8 8 9 9 8 8 6 6 5 5 4 5 5 4
1 2 12 16 15 15 11 0 2 9 5 10 13 15 18 14 10 9 5 5 16 3 10 15 7 3 3 3 4 4 4 6 6 5 6 8 6 7 7 8 8 9 11 13 13 10 7 8 13 13 11 11 10 10 9 9 9 9 9 10 8 9 10 10 10 9 9 9 9 9 9 9 8 8 9 9 8 7 6 5 5 4 4 4 4 4
2 4 12 14 12 8 3 4 3 8 13 15 11 16 15 16 15 15 14 19 6 6 16 8 7 7 8 5 6 6 6 5 7 6 6 5 7 9 8 6 7 6 6 7 9 12 16 15 12 12 12 11 11 10 10 9 9 10 11 12 10 10 10 9 11 10 10 9 8 8 9 8 8 8 8 8 8 7 7 6 5 4 4 4 4 4
3 7 10 6 13 8 1 1 2 2 5 8 15 16 18 17 16 19 22 13 10 15 15 7 13 11 8 9 8 9 10 10 11 11 11 9 7 6 8 9 10 10 10 11 13 14 15 15 15 15 14 14 13 13 13 11 11 9 9 10 10 10 11 10 10 10 10 9 9 9 8 8 7 7 8 8 8 8 7 6 5 5 4 4 3 4
2 8 5 5 12 9 5 3 1 1 2 3 7 15 18 20 22 23 20 18 16 10 7 5 7 11 4 8 9 7 9 7 4 6 6 8 10 9 9 9 10 11 12 14 15 14 14 13 11 12 12 12 14 14 14 13 12 12 12 11 10 11 10 11 10 11 11 11 11 10 9 9 8 8 8 9 9 8 8 8 7 6 5 5 4 4
8 7 7 3 6 11 6 2 0 0 0 3 6 5 12 17 17 17 17 14 9 11 9 1 4 8 3 4 6 2 4 7 7 7 8 7 8 9 9 10 10 11 11 10 9 10 10 10 10 10 11 12 14 16 15 14 13 12 11 11 11 11 11 11 11 11 11 11 9 10 10 9 9 9 10 9 8 6 6 8 6 6 5 4 4 4
6 4 3 3 7 9 5 7 3 1 1 3 9 14 9 9 13 14 16 11 10 17 13 5 9 13 3 5 4 4 5 7 8 6 6 6 8 9 11 11 11 10 10 11 11 10 11 12 12 13 15 16 15 14 13 13 12 12 13 12 12 11 11 11 12 12 11 10 10 10 11 10 10 10 9 9 8 8 7 6 7 6 6 6 5 5
7 5 6 6 9 11 2 6 7 5 1 7 20 22 8 5 6 9 6 7 15 11 7 12 17 2 6 5 7 2 4 5 5 6 5 5 7 10 12 12 11 9 10 12 11 11 12 14 15 16 15 11 12 13 13 12 11 13 13 12 11 9 11 13 12 11 10 10 10 11 10 10 11 10 9 9 8 8 8 8 7 6 7 7 5 4
5 8 8 6 8 3 2 6 7 7 10 18 4 3 16 14 15 11 13 14 9 11 10 8 4 4 6 6 9 8 7 6 6 8 8 11 10 8 6 6 8 10 9 7 8 9 9 7 7 9 11 12 13 14 12 12 13 12 9 9 9 11 11 12 12 12 11 11 12 12 11 10 10 10 10 9 8 8 9 8 8 7 5 5 5 5
12 10 7 4 4 4 3 7 6 12 17 2 5 4 6 15 15 15 11 5 6 8 8 7 3 6 6 7 8 7 8 6 5 6 5 7 9 11 12 11 9 9 9 8 8 8 8 9 8 8 8 10 11 9 9 9 9 8 9 11 12 12 13 13 12 10 11 12 12 11 10 11 10 10 9 9 9 9 9 9 7 7 6 6 6 7
10 11 5 3 4 3 3 6 7 9 1 2 3 3 2 1 3 6 7 8 9 12 11 11 11 7 6 5 2 1 4 2 2 1 2 6 9 10 8 8 8 8 8 9 9 9 9 10 11 11 11 8 8 9 10 11 10 10 12 11 12 12 12 11 10 10 10 11 11 11 12 11 11 10 9 10 9 9 10 9 9 9 7 6 4 4
8 5 4 6 3 7 5 8 7 7 9 2 2 2 5 5 6 10 9 12 12 7 8 7 9 8 4 4 5 3 3 2 0 3 2 4 3 4 8 7 8 8 7 6 8 9 8 8 8 8 6 7 8 9 10 9 10 10 9 10 10 10 10 10 11 12 12 11 10 11 12 13 12 11 11 11 11 10 11 10 9 7 6 6 6 6
3 9 4 6 4 6 4 3 1 2 10 3 3 5 2 3 5 6 5 4 2 5 8 8 10 9 5 4 5 4 4 1 6 8 5 5 4 4 4 5 5 6 6 6 5 5 5 5 5 6 8 7 8 9 8 8 9 9 9 10 9 10 10 11 14 13 12 11 10 12 13 13 13 13 12 11 13 12 9 7 6 7 7 8 8 7
3 1 1 6 2 6 5 7 6 7 5 4 3 3 3 5 9 5 4 5 2 6 8 11 11 9 8 8 5 6 4 5 9 6 6 6 5 5 7 5 6 6 6 7 9 8 6 6 6 6 6 7 7 6 7 8 9 10 9 9 9 10 11 13 14 12 13 14 14 14 13 11 11 12 12 13 12 10 10 9 9 7 7 6 5 5
4 4 5 6 6 5 7 5 7 2 2 2 2 1 3 4 7 6 3 5 1 4 2 5 8 4 5 7 9 7 7 7 10 5 1 5 6 5 7 9 8 7 6 5 4 6 6 6 6 5 6 7 7 6 7 7 8 8 9 9 9 10 13 14 15 15 15 12 11 10 9 9 11 11 12 13 9 8 8 6 7 8 7 6 6 6
3 2 6 11 7 6 6 4 2 3 0 3 6 3 3 3 5 5 8 4 2 1 1 3 2 4 7 8 8 7 8 4 2 3 4 6 7 5 4 4 6 7 8 7 7 7 6 5 6 7 6 5 5 5 6 7 8 8 8 8 8 12 15 15 12 10 9 8 8 8 10 9 10 12 10 8 9 8 7 7 8 7 7 7 6 6
2 3 1 4 10 10 7 5 6 3 4 7 1 4 3 6 3 7 2 1 7 4 0 3 5 5 7 10 9 4 3 4 4 4 5 4 6 6 6 7 7 6 4 4 7 6 6 5 5 4 3 3 4 5 5 7 7 7 6 7 11 14 14 7 6 7 7 8 9 10 10 10 8 7 8 7 8 9 8 5 6 7 7 6 6 7
9 8 6 9 4 2 2 5 1 7 1 6 9 1 3 4 5 4 5 2 2 4 4 1 4 4 7 5 4 5 5 4 5 5 4 5 7 7 8 8 9 8 8 6 4 4 6 6 5 5 5 4 5 5 5 6 7 6 6 8 14 11 5 5 6 7 8 8 9 10 11 10 10 9 8 8 9 10 9 7 8 7 7 8 6 7
2 4 3 3 3 5 7 8 6 3 6 8 12 9 4 4 2 6 8 4 1 3 4 3 2 4 4 6 6 5 5 5 4 5 5 5 5 5 5 5 5 5 4 4 6 7 5 5 4 5 4 4 4 5 5 8 7 6 7 13 10 3 5 5 6 7 8 9 9 9 9 9 9 9 8 9 9 9 9 8 7 7 7 7 7 7
4 6 1 4 3 6 4 1 0 2 9 6 1 1 6 3 3 2 5 6 5 2 3 4 4 3 4 5 5 6 4 4 5 5 7 6 7 8 8 8 8 8 8 8 7 6 5 7 7 5 5 4 5 5 6 5 8 7 9 9 3 5 6 6 6 8 8 9 8 9 8 8 8 9 8 9 10 10 9 8 8 8 6 7 6 7
4 1 0 3 3 0 1 4 3 2 3 1 2 2 4 4 2 3 6 4 3 4 6 5 4 4 4 5 7 3 5 4 6 4 5 5 5 5 4 5 4 5 6 5 5 6 6 4 5 6 6 5 5 5 5 6 7 9 10 4 5 5 6 6 7 8 9 8 7 8 8 9 7 7 7 8 8 9 9 11 10 9 8 7 7 7
2 1 1 3 2 4 5 3 3 4 4 3 3 2 3 3 2 1 3 3 4 5 4 1 5 7 7 6 7 7 6 6 6 5 5 5 5 5 6 7 6 7 9 7 7 8 6 5 5 6 6 6 5 6 6 6 8 10 4 5 5 5 6 7 8 7 6 8 7 7 9 11 9 8 7 7 6 6 7 7 8 8 9 9 9 8
3 3 1 4 1 4 2 2 1 2 1 2 3 3 2 2 3 3 3 3 4 4 4 4 5 5 5 5 6 7 6 6 7 6 5 5 6 5 5 5 5 4 4 5 5 6 5 6 7 7 6 8 7 7 6 7 9 8 5 4 5 5 6 7 8 8 7 7 6 7 8 8 10 10 8 8 9 9 8 7 8 10 11 12 11 10
4 7 5 4 3 1 2 0 1 3 1 1 0 1 2 3 4 3 3 3 3 4 4 4 3 5 6 7 5 6 6 6 7 7 7 5 4 4 5 5 5 6 6 5 5 7 9 8 8 8 8 9 6 6 6 8 8 5 6 5 5 6 7 7 6 6 5 6 6 7 7 7 8 9 9 8 8 8 8 10 11 10 6 4 6 8
7 6 2 5 2 5 9 7 6 4 3 3 5 7 6 4 4 5 4 3 3 4 4 4 2 2 4 5 7 7 7 5 6 6 6 6 6 6 5 5 5 5 5 4 3 5 6 7 9 8 9 9 4 5 6 7 7 5 5 5 5 6 8 7 6 6 6 7 7 6 7 7 8 8 8 9 9 8 6 6 10 7 7 6 9 14
7 5 7 6 7 6 4 5 8 5 4 6 9 8 6 5 5 5 6 6 5 4 5 5 4 2 2 1 3 8 7 8 6 5 5 5 5 6 6 5 5 5 5 4 5 5 6 6 4 3 5 6 4 6 7 6 5 5 5 6 6 6 6 6 7 6 6 7 8 9 8 7 7 7 7 7 7 7 7 5 7 14 15 11 10 12
Wind_Direction
129 185 192 196 214 220 217 209 228 240 258 286 329 269 275 289 280 289 143 119 144 314 225 243 254 260 267 197 191 185 191 206 214 168 170 167 165 166 163 159 146 128 123 118 118 101 102 93 87 77 67 66 39 51 42 31 53 54 72 73 68 63 52 76 94 84 84 92 93 78 73 81 70 68 69 64 55 55 51 48 49 46 46 43 40 37
63 212 222 216 222 221 235 229 217 227 252 260 294 296 274 245 271 254 209 194 52 155 264 241 262 258 260 267 174 168 169 206 207 185 182 179 172 165 161 147 141 111 123 135 122 119 98 96 96 81 77 75 62 50 45 37 42 50 50 60 63 53 53 56 58 68 65 57 70 91 79 87 75 68 66 69 58 59 56 52 51 51 48 47 46 41
216 224 223 223 229 242 254 288 326 271 234 229 221 239 265 254 263 271 111 170 124 106 270 252 257 264 263 265 185 174 188 205 206 186 182 167 167 158 155 147 132 127 143 148 122 116 105 101 99 94 85 78 68 62 52 51 58 60 47 56 62 56 55 53 58 69 79 79 77 86 90 88 92 71 74 77 72 65 65 57 54 53 52 51 50 47
241 241 232 231 229 235 227 191 252 328 296 276 230 235 235 255 262 289 83 225 183 210 276 356 309 277 272 260 254 197 194 121 51 76 105 149 161 161 164 157 146 152 150 145 148 144 131 121 112 101 95 87 85 76 55 51 79 76 59 66 71 70 66 70 65 77 81 83 85 81 90 84 86 94 80 77 69 64 61 56 53 50 50 51 54 49
221 231 194 194 219 228 215 194 180 204 247 206 221 236 247 222 232 217 228 194 166 242 232 294 281 270 241 249 236 67 54 97 129 94 72 27 76 111 121 133 157 155 155 148 145 134 136 130 115 108 103 100 90 79 70 67 75 96 92 84 89 87 86 86 89 91 100 102 96 98 96 89 89 74 71 72 62 58 62 65 50 47 48 51 54 51
250 240 121 195 197 187 202 224 194 175 234 248 218 209 228 236 251 254 281 59 0 306 192 161 315 267 223 222 225 168 130 198 160 160 180 169 125 116 133 145 137 145 147 145 146 149 141 127 118 116 115 109 108 85 59 86 99 100 99 100 100 101 106 114 111 114 110 108 117 108 96 95 86 78 68 67 79 69 62 65 63 55 50 51 53 48
250 174 165 186 175 185 197 214 194 157 224 243 276 211 206 223 264 317 317 58 307 245 320 5 191 274 359 321 134 187 190 200 168 194 195 177 173 173 178 162 154 145 142 140 135 137 131 135 130 128 124 126 107 104 105 80 82 84 89 87 82 84 80 99 124 116 87 82 85 90 94 99 104 105 87 93 81 87 82 76 65 60 52 50 54 49
114 143 168 147 162 166 200 208 195 168 178 252 278 3 143 193 204 254 262 208 245 344 271 156 163 275 281 226 243 176 189 198 191 207 201 187 181 182 183 170 162 161 151 138 142 143 138 137 140 136 130 125 112 107 82 77 78 86 92 91 88 75 70 60 73 84 88 94 94 99 101 95 99 100 106 99 97 85 90 81 73 68 60 55 53 56
147 181 151 177 172 187 209 210 181 176 180 197 299 70 71 93 224 80 183 258 238 350 265 177 152 281 254 241 201 156 201 210 216 201 203 188 177 180 181 163 165 163 157 153 152 149 148 144 131 128 120 116 114 100 97 98 96 91 90 90 82 76 68 64 71 80 80 88 95 100 109 104 91 100 102 98 91 89 83 88 78 76 71 62 54 54
345 175 181 174 177 212 158 28 343 168 201 211 117 63 84 82 63 192 294 213 299 237 247 175 178 217 274 243 172 185 224 232 219 198 195 181 173 174 172 156 155 151 151 152 143 132 125 118 121 121 115 108 112 116 112 104 101 97 95 92 91 84 80 80 82 89 90 92 100 106 108 112 112 106 100 94 92 91 83 86 84 77 71 65 60 51
140 175 104 232 219 181 107 51 30 60 101 148 118 90 62 66 140 37 201 89 2 246 237 179 196 173 284 159 183 176 221 219 196 125 151 161 158 164 163 153 155 152 150 146 141 132 120 115 119 125 127 126 120 127 121 114 114 112 106 106 100 99 95 93 96 98 101 103 111 114 116 115 117 115 115 113 101 99 96 92 88 84 81 75 69 59
143 68 305 246 70 98 108 64 17 349 125 131 141 121 111 1 48 4 285 173 196 263 184 190 196 198 227 282 12 152 359 52 150 160 163 169 169 165 159 156 155 153 153 144 139 138 136 136 141 131 131 138 138 123 122 123 117 117 119 116 109 103 104 104 105 103 104 110 110 110 113 115 119 123 123 120 121 123 114 111 102 95 88 77 71 61
242 191 130 58 297 134 155 93 7 26 334 151 123 114 126 224 73 275 146 221 206 246 298 359 197 222 241 229 235 191 183 54 34 166 168 164 162 159 152 155 154 156 156 151 149 146 149 152 154 147 145 140 148 143 139 133 127 123 122 121 115 112 109 105 107 108 109 108 110 115 115 113 113 113 115 119 116 119 112 110 105 96 90 79 72 60
273 185 180 175 51 232 159 172 147 54 230 173 163 161 140 197 213 246 194 217 251 254 287 239 312 272 332 267 233 223 122 102 28 92 153 156 158 156 154 156 157 162 164 159 152 153 158 158 159 149 147 149 147 146 141 138 134 132 125 124 116 119 116 114 109 111 109 105 106 104 106 107 108 107 105 103 106 103 98 98 98 95 95 93 89 82
244 308 222 139 236 167 199 204 188 171 162 199 179 172 187 174 180 224 194 217 226 209 244 269 119 232 127 244 11 62 80 36 348 80 117 131 138 142 146 147 151 159 164 159 155 161 162 161 158 151 152 150 148 147 144 140 139 132 127 126 124 122 121 117 115 111 109 108 105 104 101 101 98 100 97 93 92 96 96 91 96 95 92 94 90 82
213 237 205 178 9 159 198 209 152 125 153 205 190 180 215 214 106 223 170 75 26 341 272 258 198 212 193 36 79 75 75 46 10 101 119 124 131 139 149 160 164 164 163 158 158 160 158 159 152 150 151 150 150 147 147 146 142 135 135 132 131 130 128 123 120 117 116 110 103 96 97 95 95 93 90 86 80 79 84 91 94 96 94 92 92 82
127 228 62 79 135 173 202 177 204 145 193 203 150 215 204 36 191 263 11 87 81 1 254 148 288 295 316 260 162 150 105 99 308 133 128 138 143 148 161 166 168 167 164 162 161 161 156 154 154 155 150 151 150 150 153 151 147 143 141 139 134 131 128 126 123 119 116 114 109 103 100 98 96 96 98 100 94 90 84 86 85 90 95 92 90 95
166 203 315 131 184 345 77 283 206 30 14 107 195 213 101 66 69 159 231 53 182 242 261 157 203 237 148 261 148 146 169 167 189 199 150 150 157 165 173 174 173 169 165 157 154 156 156 155 153 150 150 152 153 151 147 148 147 143 145 144 137 138 134 130 125 123 123 118 111 107 101 96 99 102 100 99 101 99 100 95 93 91 92 97 94 96
174 260 211 278 62 357 353 23 40 48 39 131 182 196 137 247 234 219 88 239 204 225 262 226 204 224 192 215 138 202 193 191 186 190 170 167 177 177 170 172 171 158 154 163 165 162 161 161 159 155 153 148 146 147 144 144 140 138 136 138 138 136 135 131 126 120 111 110 111 108 107 106 103 99 100 100 100 103 104 104 106 113 114 104 99 91
136 218 294 318 59 158 31 169 196 199 302 46 82 331 247 90 226 161 196 321 140 255 54 273 148 248 193 213 183 198 198 184 174 180 198 184 181 175 173 174 174 170 170 171 169 166 162 159 158 155 153 154 154 150 146 140 136 137 137 137 132 124 122 120 121 122 118 114 112 109 102 97 100 101 105 105 106 106 107 112 113 110 101 99 95 94
257 150 254 193 309 116 213 190 202 175 186 218 155 211 212 189 291 93 279 191 174 205 221 268 268 266 229 254 184 193 186 180 177 187 188 182 182 182 180 177 177 175 173 174 171 166 162 158 156 154 152 147 143 141 138 143 146 143 140 137 138 137 133 128 126 121 121 119 117 114 112 113 110 107 104 105 105 108 109 106 102 104 111 103 99 106
206 162 214 116 244 215 243 190 209 200 196 189 185 196 189 168 173 164 248 161 219 154 235 175 252 266 241 5 40 147 183 176 187 178 176 176 176 180 181 183 181 176 176 171 169 164 160 159 157 153 144 143 145 148 148 153 147 146 147 146 140 135 138 134 131 131 128 124 121 119 118 114 110 107 105 107 108 108 106 108 116 126 114 112 104 98
174 132 161 197 212 210 222 358 61 52 14 248 210 217 180 206 182 198 208 223 155 233 87 200 331 258 236 305 353 47 73 142 158 156 165 170 174 179 181 180 184 180 171 169 167 166 165 162 161 157 154 156 157 157 156 159 156 155 150 147 146 142 145 139 138 135 131 127 123 121 117 114 114 115 117 118 118 113 114 121 131 132 122 111 108 89
71 163 182 233 53 21 353 120 27 45 56 332 274 225 177 207 195 209 222 163 184 204 192 258 257 257 272 26 352 37 42 81 128 152 158 168 171 178 173 174 170 165 165 160 163 160 158 157 152 154 160 161 165 165 167 165 158 156 153 152 149 149 145 140 139 136 130 126 123 125 122 126 131 130 132 127 125 122 125 132 128 118 110 113 106 110
146 240 143 123 282 60 271 16 310 19 89 226 199 205 217 211 202 194 81 353 240 219 181 137 241 165 271 303 358 68 97 100 128 144 154 159 171 171 169 164 165 167 163 165 166 162 156 159 168 172 168 169 166 163 167 171 167 161 157 154 153 150 146 141 140 136 136 135 135 137 138 142 144 140 135 132 131 131 133 139 126 112 112 112 111 115
163 152 153 197 215 218 214 204 210 203 210 202 220 206 210 209 190 152 219 183 236 184 163 215 234 282 281 191 167 181 142 109 154 126 125 158 159 163 170 168 167 170 175 168 161 160 174 176 167 167 173 171 169 168 170 172 170 164 158 161 157 151 147 147 143 146 142 145 144 147 147 149 146 144 140 137 134 137 139 132 124 123 120 120 127 126
177 208 186 201 207 224 237 285 282 111 76 196 208 195 207 206 203 199 215 200 223 176 188 225 186 181 222 202 209 188 193 166 169 175 153 141 148 155 161 166 166 170 172 173 173 167 148 162 182 181 173 172 169 170 172 173 172 169 164 166 162 157 153 155 153 152 149 152 152 151 156 155 152 148 145 144 142 138 133 130 130 125 127 133 135 137
124 205 227 224 223 231 149 184 280 162 180 216 198 207 206 198 196 191 195 220 132 109 240 214 150 181 218 207 203 196 209 191 183 176 161 153 167 163 156 142 138 142 154 155 160 170 183 187 180 178 177 170 172 170 172 178 178 177 174 172 166 162 160 161 158 155 156 155 155 157 159 157 152 148 145 141 138 136 135 134 133 131 127 124 140 143
149 226 231 209 242 226 132 216 9 342 224 214 204 202 201 204 196 204 216 212 152 202 230 131 178 206 204 197 197 199 188 195 181 177 182 170 135 125 137 154 167 169 170 177 185 188 187 185 187 183 179 178 170 173 178 179 183 180 178 176 170 165 167 161 158 157 157 158 160 165 161 152 146 142 139 139 138 138 140 141 136 132 135 142 149 137
122 245 236 191 240 231 237 230 23 331 315 314 231 213 206 198 205 210 219 214 201 219 216 178 187 213 178 189 192 195 194 191 135 128 124 137 160 160 165 172 181 182 184 190 193 195 194 191 186 186 180 176 177 178 181 183 185 185 180 178 171 169 166 160 167 163 166 170 170 164 159 153 150 148 144 146 150 153 151 149 148 148 153 156 150 139
176 237 179 152 222 233 213 123 183 63 36 282 296 262 218 212 211 213 225 226 228 259 253 267 309 268 248 158 178 49 89 91 99 134 160 155 156 165 171 183 188 192 197 196 195 196 193 188 186 181 183 188 188 188 187 187 185 180 178 179 176 172 169 164 168 177 175 176 168 159 154 155 156 152 156 156 153 152 153 153 154 158 159 156 151 150
171 252 42 144 211 237 200 183 146 81 38 271 271 258 239 200 197 212 221 211 198 223 227 229 255 247 167 138 70 106 116 140 157 166 155 162 170 169 180 192 193 194 195 198 199 194 189 189 187 188 193 194 194 192 188 186 184 178 184 182 178 173 165 171 180 182 180 172 162 160 161 162 156 158 159 157 163 162 160 155 159 165 165 162 156 156
187 162 168 185 213 223 213 158 159 116 70 302 249 236 199 207 229 223 234 204 215 211 215 213 236 131 182 156 145 171 175 175 167 176 183 170 177 181 190 194 194 191 199 200 195 194 195 194 195 195 196 192 189 191 194 184 176 187 188 182 177 159 172 182 184 182 176 171 167 168 168 164 164 163 163 169 165 162 158 162 166 167 171 177 166 155
183 192 213 171 228 172 192 158 135 168 214 232 298 119 170 194 205 204 207 209 203 185 217 223 228 160 134 145 169 195 190 203 186 211 187 172 175 196 212 201 194 197 202 200 195 194 196 188 189 191 189 191 193 195 189 182 187 188 175 166 159 171 178 182 190 186 179 173 176 174 171 166 164 167 171 169 167 164 166 168 177 174 170 159 162 176
188 190 209 154 179 160 164 142 163 209 225 24 288 308 193 190 195 207 225 196 197 216 230 238 162 152 176 170 186 189 198 220 222 211 188 172 168 181 190 193 195 195 192 185 188 192 190 189 187 185 187 192 192 184 172 183 180 166 167 172 177 181 182 190 188 187 182 181 180 172 168 168 170 172 172 170 170 172 173 174 169 172 172 173 182 179
175 181 158 171 129 65 134 184 196 221 26 227 302 291 309 128 190 184 234 236 217 212 212 225 236 213 178 189 160 123 160 175 73 34 181 174 171 178 176 191 192 177 181 184 177 183 181 187 188 187 195 186 169 177 178 186 175 170 184 178 181 184 187 183 186 192 190 188 181 176 173 170 175 176 171 170 177 181 176 175 180 175 169 165 176 179
172 143 175 170 179 161 189 209 241 352 320 162 68 208 173 160 167 175 197 239 227 205 185 214 240 249 217 193 152 116 102 76 313 276 255 193 174 163 175 182 169 174 161 168 167 179 181 177 178 183 166 166 173 172 186 182 175 178 169 175 184 178 180 179 189 196 198 193 183 179 177 178 178 177 175 178 180 188 186 179 178 172 159 163 178 182
221 177 211 167 216 138 140 154 335 272 241 236 214 221 201 152 140 166 143 273 129 172 175 192 230 235 219 135 124 131 95 96 264 251 233 227 181 122 97 122 121 126 133 127 109 114 122 136 134 145 149 159 171 179 174 169 169 166 171 179 173 170 179 184 200 199 194 193 187 186 185 185 181 180 179 178 189 191 188 176 168 169 168 171 178 186
11 115 249 195 194 124 185 202 210 209 243 133 224 183 182 142 121 97 66 279 227 178 198 191 219 218 188 146 158 127 113 208 249 245 230 185 182 156 121 110 115 122 130 138 139 135 129 133 139 145 144 151 169 183 163 162 160 164 177 175 173 175 183 198 204 195 194 197 194 191 189 186 182 182 181 186 192 184 179 180 176 165 161 168 171 177
155 172 165 203 199 192 188 198 219 215 229 235 214 175 189 144 108 74 44 274 274 250 263 182 212 190 134 152 149 155 164 221 249 258 228 175 163 156 142 139 128 120 113 116 113 131 133 126 109 115 140 159 180 168 156 153 160 171 177 181 171 180 198 205 203 200 201 197 188 186 185 185 187 187 184 188 180 174 177 156 152 164 165 165 162 164
160 193 208 209 201 204 195 244 329 284 290 174 186 203 171 152 95 101 201 211 204 179 332 142 157 152 147 151 162 174 217 199 170 146 102 115 103 97 99 115 134 137 137 129 130 126 124 131 141 157 167 172 162 147 149 147 156 179 183 173 174 199 208 209 202 196 196 183 176 181 186 187 190 189 188 179 174 163 156 161 163 156 159 164 155 158
174 136 327 194 216 216 213 220 242 279 214 170 285 184 190 105 177 203 213 162 144 166 272 127 141 165 159 175 188 182 138 132 119 102 114 116 131 130 120 115 104 86 79 110 126 126 125 126 127 130 142 168 149 146 144 151 169 187 173 173 199 212 215 195 182 179 171 175 181 183 183 185 186 181 173 158 148 156 164 156 148 158 157 158 163 169
181 158 198 196 191 103 127 207 125 250 194 125 126 60 319 128 233 160 137 32 113 150 134 139 147 179 157 185 162 131 135 129 140 144 141 134 133 140 137 133 135 141 141 130 119 131 133 134 147 157 170 156 140 146 155 152 178 182 181 192 218 216 178 170 166 169 175 178 180 184 184 180 173 171 162 163 163 159 163 156 153 157 158 162 165 169
211 122 207 221 183 160 178 201 208 203 128 187 140 174 189 200 168 153 130 124 67 122 145 137 196 179 171 154 152 132 139 131 118 122 108 113 122 119 131 139 140 137 137 152 156 158 143 143 153 157 163 147 149 154 160 163 181 188 190 218 223 153 159 164 168 166 174 184 186 178 178 175 171 164 164 162 159 160 157 163 160 159 169 167 167 170
220 185 199 173 183 169 208 183 178 223 161 173 89 245 143 155 129 156 125 147 148 214 164 143 204 195 162 149 148 143 138 169 160 161 143 155 148 153 156 165 159 159 158 158 168 168 156 161 167 161 165 171 167 172 173 177 175 193 209 230 159 182 170 169 164 173 184 186 182 178 170 162 167 166 164 165 161 164 166 164 161 163 175 167 175 176
346 104 150 86 298 137 90 140 143 75 162 132 6 338 125 123 59 78 131 117 193 170 171 171 178 161 165 147 131 151 155 167 138 135 132 141 148 165 146 133 135 139 144 134 137 162 167 143 139 156 177 200 188 185 184 190 181 188 224 190 175 175 165 165 172 184 191 183 177 170 156 159 159 160 163 165 175 177 175 171 174 175 171 176 188 189
226 119 101 136 245 157 246 52 103 165 159 150 94 7 25 86 131 113 107 126 162 154 153 152 148 163 166 151 152 156 166 155 143 153 150 153 160 163 168 171 175 168 158 170 177 147 145 151 159 186 193 208 216 196 201 196 208 216 203 175 179 163 163 171 181 187 179 180 173 163 164 167 169 166 164 171 168 172 171 172 176 177 178 182 185 193
273 165 87 216 236 187 243 136 277 322 43 118 127 139 138 108 99 85 108 110 115 133 139 154 115 125 142 146 162 143 167 161 148 162 163 172 176 174 180 186 189 178 210 188 159 152 144 163 185 204 204 223 218 200 202 206 217 220 208 185 165 159 159 174 180 185 190 183 171 171 173 175 167 165 172 181 178 180 183 185 185 188 192 186 186 182
164 124 210 168 160 152 24 303 349 49 37 269 340 271 220 178 157 151 136 112 110 116 102 77 98 159 151 178 152 139 138 176 170 172 171 181 174 177 193 200 200 200 196 181 178 169 182 189 196 208 204 226 216 194 201 217 224 212 201 193 162 156 164 179 183 177 173 168 163 176 178 178 174 181 177 183 191 206 198 186 190 199 211 217 189 189
112 190 183 100 108 208 213 196 161 136 243 215 214 217 224 213 152 166 158 163 160 138 137 126 83 92 136 155 155 148 155 170 181 159 174 178 187 196 199 204 211 213 223 221 184 197 207 204 200 204 210 229 203 196 210 223 224 206 194 177 168 162 174 175 168 176 183 174 179 175 172 184 185 185 184 183 190 189 217 216 203 199 192 206 200 204
176 177 140 165 188 220 204 172 176 157 171 194 194 214 203 183 153 175 193 200 205 179 156 141 147 130 158 177 149 151 164 168 190 171 169 184 199 200 193 190 195 209 217 181 171 214 218 230 230 230 236 236 200 209 214 222 209 188 189 176 174 172 174 159 172 186 191 180 194 185 183 184 185 187 186 185 184 188 191 202 219 214 212 205 205 210